RH
7 8 9 10 11 18 28 100 100 74 67 78 77 100 100 100 100 100 100 100 100 100 100 100 100 100 95 95 92 83 69 68 61 46 42 38 28 26 18 18 20 20 19 21 18 16 16 19 19 20 20 20 26 35
6 7 8 8 8 9 9 12 14 16 18 45 88 80 84 58 66 86 95 100 98 82 76 68 73 45 41 52 52 35 25 25 30 32 21 18 16 16 17 17 19 17 18 18 17 17 17 17 18 19 19 22 26 30
6 7 7 7 7 8 8 10 10 13 16 16 18 20 18 18 19 22 20 20 39 51 27 23 28 29 27 24 21 20 21 22 18 18 16 16 16 17 17 18 18 18 18 18 17 17 17 17 17 17 19 21 22 25
7 7 7 7 7 7 8 8 10 11 13 15 16 16 17 17 17 18 18 18 18 19 18 18 20 19 18 18 18 18 17 17 17 17 17 17 16 17 18 18 19 19 18 16 16 17 17 14 15 17 17 16 18 22
7 7 6 7 7 7 7 8 8 10 12 13 15 16 17 17 17 17 17 17 16 17 17 17 17 18 17 16 17 17 16 16 16 16 17 17 18 18 18 17 18 18 16 16 16 15 12 14 15 16 16 17 18 19
8 8 7 7 7 7 8 8 8 10 12 14 16 16 17 17 17 17 16 16 17 17 16 16 16 16 16 16 16 16 16 16 16 17 17 18 19 17 16 18 18 16 15 14 12 13 14 14 15 15 17 17 18 18
10 8 8 7 7 8 8 9 9 12 13 15 16 17 17 16 16 16 16 17 17 17 17 16 16 17 16 16 15 16 16 17 17 17 18 17 16 15 15 15 14 12 12 13 14 15 15 15 15 15 16 16 15 15
13 13 11 9 8 9 9 9 10 11 14 15 17 17 17 17 17 17 17 17 18 19 19 18 17 17 17 16 16 16 17 17 18 17 16 14 12 12 13 13 13 14 14 14 15 15 15 15 14 14 14 14 14 14
12 12 11 10 9 9 9 9 10 12 14 16 17 17 17 16 16 16 18 18 18 18 18 18 18 17 18 17 18 18 18 16 14 13 13 13 14 14 14 14 14 15 15 16 15 14 14 14 14 13 13 13 12 12
14 14 13 12 11 10 10 11 12 14 16 17 18 18 16 15 15 16 17 18 19 19 19 18 18 18 17 16 14 12 12 13 14 14 14 15 15 14 14 15 15 15 15 15 14 14 14 14 13 12 12 12 12 14
15 15 15 15 15 14 13 13 13 14 15 16 17 16 16 15 15 16 16 16 16 15 14 13 13 12 13 13 14 14 14 14 15 14 14 16 15 13 14 14 14 14 14 14 13 13 13 12 12 12 13 14 14 13
18 18 18 17 15 15 14 14 14 14 15 16 17 16 15 15 15 14 14 13 13 14 14 15 15 16 15 15 15 14 14 14 15 14 14 15 13 13 13 13 13 13 13 13 13 12 12 12 14 15 14 12 12 13
18 18 18 17 17 17 16 16 16 16 16 15 15 14 14 14 15 16 17 17 17 16 16 16 15 14 14 14 14 14 14 14 14 14 14 13 14 13 12 12 12 12 12 12 11 13 15 14 13 12 13 14 14 12
18 18 18 17 17 16 16 16 16 16 17 18 18 18 18 18 17 17 16 16 16 16 15 15 15 15 15 14 14 13 13 13 13 13 13 13 12 12 12 12 12 11 11 13 15 14 13 12 12 14 15 13 10 9
23 23 24 24 24 24 24 23 23 22 21 21 21 21 21 20 20 19 18 17 17 16 15 14 14 14 13 14 13 13 13 13 13 13 13 12 11 12 12 12 13 14 14 14 14 13 13 15 14 12 11 10 8 6
28 29 29 28 27 25 24 23 22 22 22 23 22 21 20 18 17 17 16 15 15 15 14 15 15 14 14 14 14 12 12 12 12 12 12 12 12 14 16 14 14 14 15 15 15 14 14 14 12 10 9 7 7 7
37 35 35 33 31 30 31 34 36 31 30 28 26 20 19 18 18 18 18 19 18 18 18 18 18 17 16 16 15 15 14 14 14 14 14 14 14 15 15 14 16 16 15 14 14 14 12 11 10 8 7 7 7 7
64 60 58 56 57 58 59 58 56 45 37 32 28 26 26 27 27 26 26 26 25 23 22 21 20 18 17 17 16 16 14 13 12 12 13 15 17 15 14 15 15 14 13 13 12 11 10 9 7 7 7 7 7 10
64 61 61 60 59 61 62 54 46 41 38 37 38 38 36 34 32 29 27 24 21 19 18 17 16 15 14 14 13 13 13 13 13 13 13 14 14 13 15 14 13 12 12 11 10 9 7 7 8 7 8 10 12 11
65 65 64 61 59 56 53 50 46 42 40 38 36 30 28 26 24 23 22 20 18 17 16 15 14 13 12 12 12 11 12 13 12 11 13 13 13 12 12 11 10 10 10 9 7 7 8 8 8 9 12 14 12 11
61 56 52 50 49 46 44 41 38 36 32 30 28 26 24 24 23 22 21 20 18 16 15 14 13 12 13 13 12 11 11 11 11 11 11 10 10 9 9 9 8 8 7 7 8 9 8 8 10 15 16 15 14 14
48 46 44 42 41 38 36 32 31 29 27 26 25 23 22 20 20 19 17 16 15 14 13 12 11 11 10 10 9 9 9 9 9 8 8 8 8 8 7 6 6 7 9 10 8 8 9 11 16 18 18 17 16 16
43 40 38 36 34 31 28 27 25 24 22 21 20 19 17 16 14 13 12 11 10 10 9 9 8 8 8 8 8 7 7 7 7 6 6 6 6 6 6 8 10 10 9 8 9 10 12 17 19 20 19 19 19 21
34 32 29 27 25 24 24 23 22 21 19 16 14 12 11 11 10 10 9 9 8 8 8 8 8 8 7 7 7 6 6 6 6 6 6 6 8 9 10 11 10 9 9 9 10 13 17 20 22 21 21 21 24 26
26 24 23 22 22 22 21 19 16 14 12 12 11 11 10 10 9 9 9 9 9 8 8 8 7 7 7 7 6 6 6 6 7 9 10 10 11 12 11 9 9 10 10 11 14 18 22 22 24 23 24 26 28 28
23 21 21 20 18 16 14 13 12 12 13 12 11 11 10 9 9 9 8 8 7 6 6 6 6 7 7 7 8 8 10 11 11 11 11 11 11 10 9 10 11 11 13 15 18 24 24 25 24 24 25 28 31 31
20 19 17 15 14 14 13 13 13 13 12 11 10 9 8 7 7 7 7 6 6 6 6 7 8 9 10 11 12 11 11 10 9 10 10 10 10 11 12 12 12 14 16 20 24 28 27 28 27 28 30 31 31 32
16 15 15 15 15 14 13 12 11 10 9 8 7 7 7 7 7 7 7 7 7 7 9 10 12 12 12 10 9 9 9 9 9 10 11 12 12 12 13 13 14 17 21 24 29 29 29 30 31 30 31 33 32 36
16 16 15 14 11 10 9 8 8 7 7 7 7 8 9 8 8 8 8 8 10 12 13 13 12 10 10 10 10 10 10 11 11 12 14 14 13 12 13 15 17 21 24 31 34 33 32 32 33 31 32 37 39 41
14 12 10 9 8 8 8 7 8 8 8 9 9 10 9 9 8 9 10 12 13 13 13 11 11 11 11 12 12 12 12 13 13 14 14 13 14 14 16 18 20 23 28 32 33 34 35 34 36 37 38 40 42 44
9 9 8 8 8 8 7 7 8 10 10 10 11 11 11 11 9 10 11 13 13 12 12 11 12 12 12 12 12 13 14 13 13 13 13 13 14 16 18 22 26 29 32 34 34 33 32 34 35 38 42 45 48 49
9 9 9 9 9 8 8 8 10 10 10 10 10 11 12 12 11 11 12 13 12 12 13 13 13 13 13 13 14 13 13 13 14 14 14 14 15 17 20 25 30 36 39 37 36 36 36 34 35 38 41 44 46 49
10 10 10 10 9 8 9 9 10 9 9 9 9 11 12 12 12 12 12 13 13 13 14 14 14 14 14 14 14 13 13 14 15 15 15 16 18 20 23 26 31 38 42 40 39 39 38 38 38 38 39 41 43 44
Wind_Speed
112 114 116 116 113 121 117 134 135 128 127 129 125 128 134 136 136 134 135 137 137 139 135 133 124 122 119 114 113 108 106 100 100 100 98 91 88 81 80 79 73 72 67 65 62 58 52 54 57 59 61 61 61 61
100 101 103 103 102 102 101 107 109 112 116 114 118 115 115 116 116 120 119 120 122 121 117 113 110 107 101 99 99 93 88 87 86 84 80 77 75 71 70 66 64 64 63 64 64 62 59 58 60 60 61 62 61 59
85 88 92 93 92 92 92 92 94 96 98 98 101 105 103 100 101 99 96 95 98 102 103 99 95 91 86 86 83 82 79 76 76 75 73 71 68 65 65 66 66 67 68 68 67 63 62 62 62 61 62 61 60 59
75 79 81 82 84 83 83 84 86 85 86 89 87 86 87 88 91 93 96 91 88 86 90 84 83 80 78 77 77 75 73 71 72 72 71 68 67 67 67 68 69 70 72 69 66 64 64 63 63 62 61 60 60 60
67 70 72 74 75 75 77 78 78 78 80 80 77 77 80 82 83 83 84 85 84 86 83 79 76 75 74 73 72 71 69 69 68 68 68 68 69 71 71 70 71 75 69 67 65 64 64 61 62 61 60 59 58 57
60 62 64 63 63 64 67 69 70 72 71 71 71 72 72 73 76 78 77 75 74 75 76 75 71 71 70 69 68 68 68 67 68 69 69 70 74 72 68 68 73 71 66 65 63 62 62 60 60 59 57 56 56 55
50 53 54 55 57 60 62 63 64 64 64 65 64 64 65 65 65 65 64 66 67 69 69 68 67 69 69 67 67 67 67 68 70 71 71 70 70 69 66 70 71 66 63 61 59 59 59 58 57 56 55 56 55 54
45 48 49 51 52 54 57 58 59 59 60 61 60 60 58 58 57 57 56 57 59 60 62 63 64 66 65 65 65 67 68 68 67 67 69 69 68 66 62 64 60 59 57 57 58 56 56 57 57 57 56 56 55 55
39 41 43 45 47 49 52 53 54 54 55 57 57 58 57 56 56 54 53 54 55 57 56 58 59 60 62 63 63 64 65 66 66 66 64 60 61 56 53 54 54 55 56 56 56 56 56 57 57 58 55 54 55 54
32 33 34 37 40 44 46 48 50 50 52 53 54 56 56 55 54 54 54 54 54 54 55 56 57 59 61 62 62 62 61 59 59 59 56 54 55 50 50 52 54 54 55 55 55 56 56 57 57 56 55 55 55 54
27 28 29 31 34 38 42 44 46 48 50 51 54 54 54 53 54 54 54 54 55 55 56 57 58 58 59 58 57 57 55 53 53 53 49 52 56 50 49 51 52 53 54 55 56 56 55 55 56 56 56 53 50 47
23 24 26 27 30 33 36 39 42 45 47 49 50 50 50 51 52 52 52 52 53 53 53 53 53 53 53 53 52 51 49 47 49 50 49 53 53 50 50 50 51 52 53 54 54 55 54 54 52 50 49 48 44 43
20 21 23 24 26 29 32 34 37 40 42 44 46 46 46 47 48 48 48 48 49 49 49 49 48 47 47 46 46 47 47 47 47 48 51 51 51 52 51 50 50 51 52 51 50 49 50 48 46 44 43 41 41 40
19 20 22 24 26 28 30 32 34 36 37 39 39 39 41 41 42 43 43 43 43 43 43 44 44 45 46 46 46 47 46 46 47 50 50 51 52 50 50 50 51 50 48 46 45 44 43 44 42 38 38 39 38 36
18 19 19 21 22 24 25 27 28 29 31 32 34 34 36 37 38 40 41 42 43 43 44 44 45 46 45 46 46 47 46 46 48 48 50 50 48 48 48 48 48 45 41 41 41 41 40 39 38 35 33 34 34 30
16 17 18 19 20 22 23 24 26 28 30 33 34 36 38 40 41 42 43 43 43 43 43 43 43 44 44 44 46 45 44 46 45 46 45 46 44 42 43 43 41 38 39 38 38 37 35 34 32 31 29 29 25 22
14 15 16 17 19 20 22 22 24 27 31 33 35 37 38 38 37 37 38 38 39 40 41 42 43 43 44 43 45 43 43 43 42 41 40 39 37 37 38 37 34 37 36 36 33 32 30 29 28 26 23 20 18 17
14 16 17 19 20 21 23 26 30 33 34 36 36 36 36 36 36 36 36 37 38 38 39 40 41 42 41 41 41 41 40 39 38 36 34 32 35 36 33 33 35 33 32 29 29 27 26 25 22 18 16 14 11 9
18 19 20 22 22 25 29 33 34 35 35 35 35 35 36 36 37 38 39 39 39 39 40 41 40 41 39 39 38 37 36 35 36 33 32 32 35 32 32 32 31 29 27 25 24 23 21 17 14 12 9 7 5 6
20 21 23 25 27 30 33 35 35 36 36 36 36 36 37 37 38 38 39 40 40 40 40 41 40 39 38 36 35 34 33 34 35 29 28 31 30 31 30 28 26 24 22 21 20 18 15 12 11 8 9 9 11 13
24 26 27 29 31 34 35 35 35 34 34 35 36 36 35 35 36 37 38 38 38 38 38 38 37 34 32 31 31 30 28 29 28 28 29 28 27 26 25 23 21 18 18 17 16 14 13 12 11 13 13 15 16 18
28 27 29 31 32 34 35 35 35 34 33 33 32 33 33 34 34 35 35 34 34 34 34 33 32 31 30 29 28 27 27 26 26 26 25 24 23 21 19 17 16 16 16 16 15 15 15 15 17 17 18 18 18 19
30 31 32 33 35 34 34 33 32 32 32 32 32 32 32 32 32 32 31 32 32 31 30 29 29 27 26 25 25 24 24 23 22 21 20 18 17 15 14 15 16 17 17 17 18 19 18 20 20 21 20 20 21 21
34 35 35 34 34 33 32 32 32 32 33 33 32 31 31 31 30 29 28 28 27 26 25 24 24 23 21 21 20 20 19 19 17 16 15 15 14 15 16 17 17 18 19 21 22 21 22 23 23 22 22 22 23 22
35 34 34 33 32 33 32 33 33 32 31 30 29 28 28 27 26 25 24 23 22 21 20 19 18 18 18 17 17 16 15 14 13 14 14 14 14 16 18 19 21 22 24 24 23 24 25 26 25 24 25 24 24 25
35 34 34 33 33 33 31 31 29 28 28 28 26 25 25 23 22 21 19 18 17 17 16 16 15 15 14 14 13 13 13 14 15 15 14 15 17 20 21 23 25 27 26 27 26 27 27 26 25 25 26 26 26 26
34 34 33 32 30 28 28 28 27 26 26 24 23 22 20 19 18 17 16 16 15 14 14 13 13 13 12 12 13 13 14 15 15 15 16 19 22 24 25 27 29 30 30 30 31 30 29 27 26 26 27 27 27 28
32 30 29 28 27 27 27 25 23 22 20 19 18 16 15 15 14 14 13 13 13 13 12 12 12 12 13 13 14 14 15 15 16 18 20 23 25 26 28 30 32 33 33 33 33 32 31 29 28 29 29 28 28 29
28 27 26 26 25 24 23 20 18 17 15 14 13 12 11 11 10 11 11 12 12 12 12 12 13 13 14 14 15 16 17 19 20 22 25 27 27 28 31 34 35 36 36 36 36 34 32 31 31 30 29 29 30 30
26 25 23 21 20 19 18 15 14 13 12 11 10 9 9 8 9 10 11 11 11 12 13 13 14 14 15 16 17 17 19 21 23 25 27 28 30 31 33 35 36 36 37 38 38 38 36 35 33 30 30 30 30 30
20 19 18 17 15 15 15 12 11 11 11 11 10 10 9 8 9 11 11 11 12 13 13 14 15 15 16 17 18 20 21 22 23 25 27 28 31 33 36 37 37 37 38 38 37 36 35 35 35 33 32 31 31 31
16 15 14 14 14 13 11 10 10 10 10 10 10 10 10 11 11 11 11 13 14 14 15 15 16 17 17 19 20 21 21 22 23 24 27 30 33 36 38 40 40 41 40 39 38 36 35 34 35 34 33 33 31 31
12 12 12 11 11 10 9 9 9 9 10 10 10 11 12 12 12 12 13 15 16 16 17 17 17 18 18 19 19 20 22 23 24 27 29 31 34 36 39 41 42 43 42 41 38 36 35 35 34 33 33 32 32 31
Wind_Direction
251 252 253 254 253 253 255 255 258 259 259 260 261 261 262 264 264 265 268 269 269 272 271 273 274 275 275 277 277 279 279 279 278 278 279 281 282 282 283 283 283 281 281 280 281 281 282 279 280 282 282 284 284 283
248 249 250 250 251 251 252 252 254 255 255 259 259 258 263 263 264 266 268 268 269 269 269 270 271 273 274 275 276 276 277 277 276 276 278 279 279 279 278 278 278 278 278 279 280 281 281 281 281 281 281 282 282 282
247 248 248 248 248 248 249 249 250 251 253 254 255 255 259 263 262 264 265 267 265 265 266 269 270 271 273 274 275 276 275 274 275 276 276 277 278 277 276 277 278 279 279 280 280 281 282 282 281 280 280 281 281 281
243 243 244 245 245 245 246 246 248 250 251 252 254 256 258 260 261 262 263 266 265 265 266 269 270 271 271 271 272 272 272 272 272 273 274 276 276 276 276 278 279 279 278 279 281 281 282 280 278 279 280 279 280 280
240 241 242 243 243 243 243 243 245 247 249 251 254 255 256 257 259 261 261 262 264 265 268 267 268 268 268 269 269 270 271 272 272 272 273 274 275 275 277 278 278 276 278 279 280 279 278 278 278 279 280 281 281 282
238 239 241 242 244 244 242 243 244 246 248 248 249 252 255 256 257 260 262 263 262 263 265 265 266 267 267 267 267 268 270 271 272 273 274 274 275 277 277 276 274 276 279 279 278 276 277 278 280 280 281 281 280 280
238 239 240 240 240 239 239 240 242 244 246 247 249 251 254 256 257 259 260 261 262 263 264 265 264 265 266 267 268 268 269 271 272 274 275 275 276 276 276 274 275 277 277 275 274 275 278 279 279 280 279 279 280 281
235 235 236 237 236 236 238 241 243 245 246 246 247 250 253 255 257 260 262 261 261 261 263 264 263 263 265 266 268 270 271 272 273 274 274 274 275 275 274 273 273 273 272 273 275 277 278 279 280 280 281 282 282 281
231 234 234 234 235 236 237 240 241 242 244 246 247 250 253 256 258 260 261 262 262 262 262 262 263 264 265 266 267 268 270 271 272 272 273 273 272 270 270 269 270 271 273 275 276 277 278 279 280 282 283 283 283 283
228 231 234 234 234 234 235 237 239 240 243 245 248 250 254 257 258 258 260 261 262 262 263 264 265 265 266 267 267 268 268 268 268 268 269 267 267 267 267 269 270 272 273 275 276 277 279 282 283 284 285 285 284 282
218 223 226 226 225 226 229 233 236 240 243 245 248 252 254 256 258 259 260 260 261 262 263 263 263 264 265 265 266 266 266 266 264 264 264 265 266 268 269 270 272 274 275 277 279 280 280 282 285 285 285 283 282 281
207 211 213 216 219 222 226 230 235 238 242 245 249 253 254 256 257 259 260 261 262 262 262 262 262 263 263 263 263 263 262 262 262 265 267 267 271 273 271 272 273 275 276 277 278 282 283 283 282 280 279 280 281 278
192 198 205 212 217 222 227 232 236 240 243 245 248 250 252 254 255 256 257 257 258 259 259 261 262 262 261 261 262 264 265 266 268 270 271 272 274 273 274 274 275 275 275 278 281 280 280 280 279 279 280 279 277 273
194 201 208 214 220 226 230 234 237 239 242 245 248 249 251 254 255 256 257 258 259 260 261 262 263 264 266 267 267 268 270 270 271 269 270 270 270 273 275 276 276 277 279 281 278 276 276 277 279 279 279 277 276 274
199 205 211 218 224 228 233 237 241 244 247 248 251 252 253 254 255 257 258 260 261 263 265 266 267 268 268 269 269 268 268 267 266 268 268 270 272 273 274 275 276 278 278 275 275 275 276 278 279 277 276 276 276 277
204 212 218 223 228 233 237 240 243 246 248 250 251 252 254 256 258 260 263 265 267 267 268 267 267 267 268 267 267 267 267 266 267 268 269 271 272 273 272 273 275 277 274 274 273 275 277 277 277 278 278 277 276 275
219 227 232 237 241 245 249 252 254 255 256 256 257 259 261 264 266 268 269 269 269 269 268 268 268 268 267 268 268 268 268 268 268 268 268 270 271 270 269 272 273 270 271 271 274 275 275 276 276 278 275 274 273 270
242 248 251 255 256 258 259 259 258 258 260 263 267 272 275 277 276 275 274 273 273 272 271 270 269 268 268 268 269 271 271 270 270 269 270 270 268 266 268 268 265 267 269 271 271 273 272 272 270 266 267 262 252 233
256 258 261 259 261 258 257 259 263 266 270 274 277 278 277 277 277 276 276 276 276 274 273 272 271 272 272 272 272 272 272 272 271 269 269 265 263 265 262 262 264 266 266 267 267 265 262 256 254 251 240 211 186 178
275 273 267 264 263 261 262 266 271 275 278 280 280 279 278 276 276 275 275 275 273 273 273 273 274 274 275 275 273 270 269 268 267 266 261 259 258 257 259 260 261 261 262 258 253 246 240 238 221 201 176 159 159 153
277 271 266 266 267 269 272 274 277 280 280 280 279 278 277 276 275 274 274 273 274 275 275 275 276 276 274 272 271 270 266 262 262 260 256 255 255 255 256 256 254 250 242 234 228 223 217 195 178 166 157 158 154 147
279 277 275 276 279 281 284 285 285 283 281 280 280 278 277 277 275 275 275 275 274 274 275 276 275 274 272 270 268 266 264 261 259 258 257 256 254 251 247 242 231 221 214 213 209 201 181 171 163 159 158 156 149 142
283 280 280 283 285 287 288 286 285 284 283 282 280 279 278 277 276 275 276 275 275 274 273 273 272 270 270 267 264 261 258 256 253 251 248 244 238 230 220 210 205 203 203 197 190 174 170 166 162 160 158 153 147 143
283 283 285 288 290 289 286 285 284 283 282 280 280 280 279 277 278 278 277 275 273 272 271 270 268 265 261 257 253 250 246 243 240 235 229 222 212 201 199 198 198 194 189 182 170 168 168 165 163 160 159 153 147 150
288 291 292 291 289 288 287 286 284 283 283 282 282 282 282 280 278 276 274 272 271 270 267 262 257 252 247 243 241 236 231 224 215 209 206 201 195 193 194 191 187 183 176 169 167 169 168 166 164 164 158 154 152 157
292 291 290 290 289 287 286 285 284 285 285 285 285 283 279 278 277 274 271 268 264 259 253 246 239 236 230 224 220 211 203 203 207 207 202 196 190 188 186 181 179 173 169 167 169 169 168 167 166 166 159 156 156 158
289 289 289 288 287 287 286 286 287 286 284 284 282 280 279 275 269 266 261 255 247 240 233 226 218 213 208 204 205 207 207 206 202 197 189 182 181 181 179 179 174 169 169 169 170 170 168 167 167 165 161 159 160 162
288 288 288 288 288 288 287 288 287 284 283 280 278 275 272 267 261 254 244 236 228 221 214 207 203 202 204 204 201 197 193 188 183 177 174 176 177 175 173 172 171 169 170 171 171 172 169 167 169 168 166 165 163 161
288 288 289 289 288 287 285 285 283 279 276 272 270 266 262 254 241 232 223 215 210 204 200 199 200 200 195 191 186 183 179 176 173 172 173 173 171 170 170 171 172 171 172 171 172 173 172 170 173 173 167 167 167 168
287 287 288 287 284 281 278 276 273 269 264 261 258 252 245 236 228 219 213 207 202 200 201 199 194 189 186 184 180 178 176 174 173 174 174 172 171 170 171 174 175 175 175 174 176 176 174 173 171 172 173 171 171 170
286 285 285 282 277 273 271 267 259 254 253 248 241 234 228 225 218 214 210 205 202 201 196 191 187 184 183 183 179 177 177 178 177 175 173 172 173 172 173 175 177 178 179 179 180 182 179 177 174 174 176 178 178 180
285 282 279 274 271 267 264 256 248 247 245 238 229 222 219 218 216 213 206 201 199 195 191 188 186 186 184 181 179 179 178 175 172 171 172 175 174 174 175 175 177 179 181 182 184 184 185 184 181 181 181 182 184 187
280 274 271 269 267 264 256 251 247 244 237 228 220 216 215 216 212 205 200 199 196 193 190 187 187 186 184 180 178 178 176 175 174 175 176 176 176 178 179 179 180 181 183 185 186 187 189 189 189 190 191 190 192 194